Regional Weather Roundup
Issued by NWS

Home | Current Version | Previous Version | Graphics & Text | Print | Product List | Glossary On
Versions: 1 2 3 4 5 6 7 8 9 10 11 12 13 14 15 16 17 18 19 20 21 22 23 24 25 26 27 28 29 30 31 32 33 34 35 36 37 38 39 40 41 42 43 44 45 46 47 48 49 50
000
ASUS43 KBIS 290810
RWRND

NORTH DAKOTA REGIONAL WEATHER ROUNDUP
NATIONAL WEATHER SERVICE BISMARCK ND
300 AM CDT SAT APR 29 2017

NOTE: "FAIR" INDICATES FEW OR NO CLOUDS BELOW 12,000 FEET WITH NO
SIGNIFICANT WEATHER AND/OR OBSTRUCTIONS TO VISIBILITY.


NDZ001>003-009>011-017-290900-
NORTHWEST NORTH DAKOTA

CITY           SKY/WX    TMP DP  RH WIND       PRES   REMARKS
WILLISTON      FAIR      40  26  57 CALM      30.17R
MINOT          FAIR      38  24  57 S6        30.18S
MINOT AFB      PTCLDY    36  25  63 S6        30.17S
$$

NDZ018>021-031>035-040>046-290900-
SOUTHWEST NORTH DAKOTA

CITY           SKY/WX    TMP DP  RH WIND       PRES   REMARKS
BISMARCK       FAIR      31  23  72 CALM      30.23R
DICKINSON      FAIR      26  17  68 S7        30.18S WCI  18
GARRISON         N/A     35  26  69 CALM      30.20R
HETTINGER ARPT PTCLDY    29  23  78 CALM      30.21S
$$

NDZ004>008-012>016-024-026-027-054-290900-
NORTHEAST NORTH DAKOTA

CITY           SKY/WX    TMP DP  RH WIND       PRES   REMARKS
GRAND FORKS    CLEAR     30  25  81 NW3       30.22R
GRND FRKS AFB  CLEAR     30  25  81 CALM      30.23R
DEVILS LAKE    FAIR      33  28  81 CALM      30.23R
$$

NDZ022-023-025-028>030-036>039-047>053-290900-
SOUTHEAST NORTH DAKOTA

CITY           SKY/WX    TMP DP  RH WIND       PRES   REMARKS
FARGO          CLEAR     28  23  81 N3        30.22R
JAMESTOWN      FAIR      31  25  78 CALM      30.22R
$$





USA.gov is the U.S. government's official web portal to all federal, state and local government web resources and services.